Waarnemingen

Advertentie
Mijn weer
Santander, Spanje (8023): temperatuur & dauwpunt: 07.11.2019 04:00:00 - 13.11.2019 04:00:00 (CET)Santander, Spanje (8023): windsnelheid & windstoten: 07.11.2019 04:00:00 - 13.11.2019 04:00:00 (CET)Santander, Spanje (8023): windrichting: 07.11.2019 04:00:00 - 13.11.2019 04:00:00 (CET)Santander, Spanje (8023): luchtdruk: 07.11.2019 04:00:00 - 13.11.2019 04:00:00 (CET)Santander, Spanje (8023): zicht: 07.11.2019 04:00:00 - 13.11.2019 04:00:00 (CET)Santander, Spanje (8023): neerslag: 07.11.2019 04:00:00 - 13.11.2019 04:00:00 (CET)
Datum & Tijd tt [°C] td [°C] ff [km/u] ff [kn] fx [km/u] fx [kn] dd ppp [hPa] vv [km] rr [mm]
13.11.2019 04:00:00 12,1 11,3 16 9 - - NO 1007,0 8 -
13.11.2019 03:00:00 12,1 11,2 18 10 - - NO 1006,7 2,5 4,0
13.11.2019 02:00:00 12,3 10,5 8 4 - - ZZO 1005,5 - 0,0
13.11.2019 01:00:00 12,1 10,5 13 7 - - ONO 1005,1 15 -
13.11.2019 00:00:00 11,7 10,6 13 7 - - NO 1005,5 - 0,2
12.11.2019 23:00:00 10,9 10,1 4 2 - - O 1006,0 6 0,2
12.11.2019 22:00:00 10,8 9,9 4 2 - - OZO 1006,9 6 -
12.11.2019 21:00:00 11,0 9,9 9 5 - - OZO 1007,3 - 0,8
12.11.2019 20:00:00 11,0 9,7 15 8 - - OZO 1007,8 7 1,0
12.11.2019 19:00:00 11,3 9,9 13 7 - - ZO 1008,5 4,0 -
12.11.2019 18:00:00 12,1 9,5 2 1 - - OZO 1009,3 6 0,6
12.11.2019 17:00:00 12,7 9,0 8 4 - - ZZW 1010,3 11 0,2
12.11.2019 16:00:00 13,4 9,1 8 4 - - WZW 1011,2 8 -
12.11.2019 15:00:00 13,8 9,0 16 9 - - W 1012,0 13 0,0
12.11.2019 14:00:00 14,5 8,4 22 12 - - W 1012,9 12 0,0
12.11.2019 13:00:00 13,6 8,6 26 14 - - W 1014,1 10 -
12.11.2019 12:00:00 13,3 8,4 29 16 - - W 1015,2 15 0,0
12.11.2019 11:00:00 12,0 7,9 18 10 - - W 1015,6 16 0,0
12.11.2019 10:00:00 11,6 8,3 21 11 - - W 1015,9 10 -
12.11.2019 09:00:00 10,9 7,0 16 9 - - WZW 1016,2 19 0,0
12.11.2019 08:00:00 12,0 7,9 35 19 - - W 1015,9 13 0,0
12.11.2019 07:00:00 12,1 8,4 35 19 - - W 1016,2 12 -
12.11.2019 06:00:00 12,3 8,9 34 18 - - W 1016,3 14 0,0
12.11.2019 05:00:00 11,5 9,2 31 17 - - W 1016,6 8 0,2
12.11.2019 04:00:00 11,5 9,7 28 15 - - W 1017,0 10 -
12.11.2019 03:00:00 10,1 7,9 16 9 - - W 1017,8 9 2,0
12.11.2019 02:00:00 10,4 8,0 18 10 - - WZW 1018,1 10 0,0
12.11.2019 01:00:00 11,5 9,6 31 17 - - W 1018,6 12 -
12.11.2019 00:00:00 11,9 9,1 26 14 - - W 1019,3 13 0,2
11.11.2019 23:00:00 12,4 8,7 22 12 - - NNW 1019,6 9 0,0
11.11.2019 22:00:00 12,1 7,4 28 15 - - WNW 1019,8 12 -
11.11.2019 21:00:00 12,9 6,0 29 16 - - NW 1019,8 11 0,0
11.11.2019 20:00:00 13,1 7,5 22 12 - - NW 1020,1 8 0,0
11.11.2019 19:00:00 12,8 7,7 35 19 - - NNW 1019,7 10 -
11.11.2019 18:00:00 13,0 8,1 26 14 - - WNW 1019,2 7 0,0
11.11.2019 17:00:00 13,4 6,9 29 16 - - NNW 1019,2 8 0,0
11.11.2019 16:00:00 13,0 8,3 29 16 - - NNW 1019,0 10 -
11.11.2019 15:00:00 14,1 8,9 44 24 - - NNW 1018,2 6 0,0
11.11.2019 14:00:00 13,8 6,9 35 19 - - NNW 1018,1 7 0,0
11.11.2019 13:00:00 14,2 7,0 52 28 - - NNW 1017,6 12 -
11.11.2019 12:00:00 13,1 9,9 54 29 80 43 NNW 1017,1 6 0,6
11.11.2019 11:00:00 13,3 12,4 54 29 83 45 NNW 1015,8 2,7 0,2
11.11.2019 10:00:00 12,0 11,4 22 12 - - WZW 1014,0 9 -
11.11.2019 09:00:00 10,4 9,0 15 8 - - ZW 1014,2 - 0,0
11.11.2019 08:00:00 10,7 8,1 18 10 - - ZZW 1014,1 16 0,0
11.11.2019 07:00:00 10,7 7,9 15 8 - - ZW 1014,6 15 -
11.11.2019 06:00:00 11,2 7,1 15 8 - - ZW 1015,7 18 0,0
11.11.2019 05:00:00 11,1 7,2 13 7 - - ZW 1016,2 19 0,0
11.11.2019 04:00:00 11,1 7,6 13 7 - - ZW 1016,9 17 -
11.11.2019 03:00:00 11,0 8,2 16 9 - - WZW 1017,0 15 0,0
11.11.2019 02:00:00 10,5 8,3 16 9 - - WZW 1017,7 12 0,0
11.11.2019 01:00:00 10,3 8,4 16 9 - - WZW 1017,7 13 -
11.11.2019 00:00:00 11,1 10,0 22 12 - - W 1018,2 6 2,0
10.11.2019 23:00:00 10,9 8,6 18 10 - - WZW 1017,9 9 0,0
10.11.2019 22:00:00 13,0 7,9 18 10 - - NW 1018,1 10 -
10.11.2019 21:00:00 12,4 8,3 24 13 - - WNW 1017,5 8 0,0
10.11.2019 20:00:00 12,5 7,8 29 16 - - NW 1018,1 9 0,0
10.11.2019 19:00:00 10,3 8,4 26 14 - - N 1018,6 10 -
10.11.2019 18:00:00 11,3 6,6 28 15 - - NNW 1017,6 6 0,4
10.11.2019 17:00:00 12,4 8,1 24 13 - - WNW 1017,2 7 0,0
10.11.2019 16:00:00 13,0 7,9 28 15 - - NW 1016,7 12 -
10.11.2019 15:00:00 13,0 7,7 29 16 - - NNW 1016,3 8 0,0
10.11.2019 14:00:00 12,7 7,6 31 17 - - NW 1016,4 8 0,0
10.11.2019 13:00:00 12,2 7,7 31 17 - - NW 1016,6 10 -
10.11.2019 12:00:00 9,7 7,3 34 18 - - NNW 1017,2 3,7 0,2
10.11.2019 11:00:00 11,0 7,5 42 23 80 43 NNW 1016,3 8 1,0
10.11.2019 10:00:00 10,9 7,6 37 20 - - NNW 1016,3 12 -
10.11.2019 09:00:00 11,8 7,5 37 20 78 42 WNW 1015,8 7 0,0
10.11.2019 08:00:00 11,8 8,3 44 24 98 53 NW 1015,3 7 0,4
10.11.2019 07:00:00 11,1 8,1 35 19 - - NNW 1015,3 8 -
10.11.2019 06:00:00 11,3 6,2 52 28 - - NNW 1016,3 4,4 0,6
10.11.2019 05:00:00 12,4 7,1 44 24 - - WNW 1015,5 9 0,0
10.11.2019 04:00:00 12,7 6,1 41 22 - - NW 1016,0 10 -
10.11.2019 03:00:00 12,4 6,4 41 22 - - NW 1016,5 10 0,2
10.11.2019 02:00:00 11,1 6,8 37 20 80 43 WNW 1017,2 11 0,0
10.11.2019 01:00:00 11,2 6,1 37 20 - - NW 1016,9 8 -
10.11.2019 00:00:00 12,1 7,0 31 17 81 44 NW 1016,7 9 1,0
09.11.2019 23:00:00 11,2 7,1 34 18 - - NW 1016,9 7 0,4
09.11.2019 22:00:00 12,9 7,8 34 18 - - NW 1016,5 10 -
09.11.2019 21:00:00 12,8 6,6 42 23 83 45 NW 1016,2 10 2,0
09.11.2019 20:00:00 10,7 8,8 46 25 85 46 NNW 1016,7 2,5 1,0
09.11.2019 19:00:00 11,0 9,6 42 23 - - NNW 1015,1 3,0 -
09.11.2019 18:00:00 12,5 10,4 50 27 - - NW 1013,8 1,4 3,0
09.11.2019 17:00:00 14,1 10,3 48 26 78 42 NW 1013,9 7 0,0
09.11.2019 16:00:00 14,8 10,0 54 29 - - WNW 1013,9 12 -
09.11.2019 15:00:00 - - - - - - - - - -
09.11.2019 14:00:00 - - - - - - - - - -
09.11.2019 13:00:00 11,3 9,6 18 10 - - ZZW 1013,6 17 -
09.11.2019 12:00:00 10,3 8,4 18 10 - - ZZW 1015,6 10 0,0
09.11.2019 11:00:00 10,7 7,2 16 9 - - ZZW 1016,5 12 0,0
09.11.2019 10:00:00 11,1 6,6 15 8 - - ZZW 1016,9 17 -
09.11.2019 09:00:00 11,2 6,5 18 10 - - ZZW 1017,6 19 0,0
09.11.2019 08:00:00 11,3 6,0 16 9 - - ZW 1017,6 17 0,0
09.11.2019 07:00:00 11,5 6,4 15 8 - - ZW 1018,1 20 -
09.11.2019 06:00:00 12,4 7,9 26 14 - - W 1018,3 10 0,0
09.11.2019 05:00:00 12,5 9,3 35 19 - - WNW 1018,3 9 0,0
09.11.2019 04:00:00 12,0 9,4 37 20 - - WNW 1018,7 10 -
09.11.2019 03:00:00 11,1 10,0 35 19 - - W 1018,8 2,7 3,0
09.11.2019 02:00:00 11,4 10,0 34 18 - - W 1018,8 - 0,0
09.11.2019 01:00:00 11,6 9,8 42 23 - - W 1019,0 12 -
09.11.2019 00:00:00 11,6 9,3 35 19 - - W 1018,9 3,8 2,0
08.11.2019 23:00:00 13,0 9,6 37 20 - - WNW 1018,8 7 0,0
08.11.2019 22:00:00 13,3 6,4 44 24 - - NW 1018,6 10 -
08.11.2019 21:00:00 12,9 8,8 42 23 - - NNW 1018,1 6 0,2
08.11.2019 20:00:00 12,2 8,7 42 23 78 42 NW 1017,5 4,8 0,4
08.11.2019 19:00:00 11,3 9,4 50 27 - - WNW 1016,8 6 -
08.11.2019 18:00:00 11,0 9,1 52 28 94 51 NNW 1016,2 3,0 4,0
08.11.2019 17:00:00 11,0 9,7 48 26 94 51 NNW 1015,4 2,1 3,0
08.11.2019 16:00:00 11,2 9,5 46 25 - - NW 1014,3 6 -
08.11.2019 15:00:00 11,9 9,3 57 31 93 50 NW 1013,2 - 2,0
08.11.2019 14:00:00 13,0 9,6 59 32 87 47 NW 1012,3 - 0,4
08.11.2019 13:00:00 12,0 9,2 54 29 - - NW 1012,2 6 -
08.11.2019 12:00:00 12,2 9,4 50 27 94 51 NW 1011,7 3,4 3,0
08.11.2019 11:00:00 11,2 8,9 57 31 83 45 WNW 1010,6 2,6 4,0
08.11.2019 10:00:00 12,8 8,5 52 28 - - WNW 1010,4 7 -
08.11.2019 09:00:00 12,7 7,4 54 29 83 45 WNW 1009,7 7 0,2
08.11.2019 08:00:00 10,0 7,4 42 23 80 43 W 1009,9 7 2,0
08.11.2019 07:00:00 9,4 7,2 42 23 - - W 1009,1 5 -
08.11.2019 06:00:00 9,6 7,4 35 19 78 42 W 1008,9 9 0,8
08.11.2019 05:00:00 8,6 6,2 29 16 - - W 1008,7 7 0,8
08.11.2019 04:00:00 8,3 5,6 34 18 - - WZW 1008,5 10 -
08.11.2019 03:00:00 8,0 5,5 28 15 - - WZW 1008,4 16 0,4
08.11.2019 02:00:00 8,3 5,2 37 20 - - WZW 1008,0 17 0,2
08.11.2019 01:00:00 8,0 5,3 28 15 - - WZW 1008,5 10 -
08.11.2019 00:00:00 9,6 6,3 50 27 - - W 1008,2 - 0,4
07.11.2019 23:00:00 9,8 4,8 50 27 81 44 W 1008,4 13 0,0
07.11.2019 22:00:00 10,2 4,8 50 27 - - W 1008,3 10 -
07.11.2019 21:00:00 9,6 2,9 35 19 - - WZW 1008,8 18 0,0
07.11.2019 20:00:00 9,1 3,5 22 12 - - WZW 1008,9 19 0,0
07.11.2019 19:00:00 10,1 4,5 48 26 - - W 1008,5 10 -
07.11.2019 18:00:00 10,4 6,7 55 30 80 43 WNW 1008,8 7 0,0
07.11.2019 17:00:00 11,2 5,5 35 19 78 42 W 1008,9 14 0,0
07.11.2019 16:00:00 10,6 7,3 55 30 - - NW 1008,9 10 -
07.11.2019 15:00:00 10,9 7,2 46 25 83 45 W 1008,8 13 0,8
07.11.2019 14:00:00 9,9 6,6 55 30 83 45 WNW 1009,9 4,6 0,2
07.11.2019 13:00:00 12,5 6,5 42 23 - - WNW 1010,1 12 -
07.11.2019 12:00:00 12,8 6,6 34 18 - - W 1010,6 16 0,0
07.11.2019 11:00:00 11,7 5,3 42 23 - - W 1010,8 14 0,2
07.11.2019 10:00:00 10,6 6,2 18 10 - - ZW 1010,7 12 -
07.11.2019 09:00:00 10,0 5,8 39 21 76 41 W 1010,5 14 0,2
07.11.2019 08:00:00 10,3 6,6 35 19 78 42 W 1010,1 12 0,8
07.11.2019 07:00:00 11,1 8,3 35 19 - - WNW 1009,5 8 -
07.11.2019 06:00:00 11,3 9,6 35 19 83 45 W 1009,6 7 3,0
07.11.2019 05:00:00 11,5 9,4 35 19 - - W 1009,5 8 1,0
07.11.2019 04:00:00 12,4 10,5 37 20 - - WNW 1009,0 8 -

tt = temperatuur
td = dauwpunt
ff = windsnelheid
fx = windstoten
dd = windrichting
ppp = luchtdruk
vv = zicht
rr = neerslag

Weerstations in de omgeving